Location: Perryvale
(54.4667°N, 113.3833°W)
Time: 20:48:44
(UTC+00:00)

Vanguard 1 Rocket - Pass Details

Date: 21 May 2024
Orbit: 649 x 4220 km, 34.3° (Epoch: 19 June)

Event Time Altitude Azimuth Distance (km) Brightness Sun altitude
Rises 17:24:57 0° 228° (SW) 7,838 12.1 48.5°
Reaches altitude 10° 17:32:07 10° 219° (SW) 6,277 11.8 49.2°
Maximum altitude 17:45:10 26° 173° (S) 3,796 11.6 50.5°
Drops below altitude 10° 17:53:29 10° 123° (ESE) 3,898 11.4 51.3°
Sets 17:56:38 0° 110° (ESE) 4,469 11.4 51.6°
